Regional Weather Roundup
Issued by NWS

Home | Current Version | Previous Version | Graphics & Text | Print | Product List | Glossary Off
Versions: 1 2 3 4 5 6 7 8 9 10 11 12 13 14 15 16 17 18 19 20 21 22 23 24 25 26 27 28 29 30 31 32 33 34 35 36 37 38 39 40 41 42 43 44 45 46 47 48 49 50

056
ASUS43 KDTX 281501
RWRMI
MICHIGAN HOURLY REGIONAL WEATHER ROUNDUP
NATIONAL WEATHER SERVICE DETROIT/PONTIAC MI
1100 AM EDT FRI APR 28 2017

NOTE: "FAIR" INDICATES FEW OR NO CLOUDS BELOW 12,000 FEET WITH NO
SIGNIFICANT WEATHER AND/OR OBSTRUCTION TO VISIBILITY.

MIZ047>049-052>055-059>063-066>070-074>076-081>083-281600-
SOUTHEAST LOWER MICHIGAN

CITY           SKY/WX    TMP DP  RH WIND       PRES   REMARKS
ADRIAN         SUNNY     55  42  61 SW15      30.01R
ALMA           CLOUDY    50  40  67 SW16G25   29.96R
ANN ARBOR      MOSUNNY   55  42  61 S10G20    29.99R
BAD AXE        PTSUNNY   51  38  61 SW14G23   29.94R
CARO           MOSUNNY   53  39  59 SW14G22   29.94S
DETROIT CITY   SUNNY     57  42  57 SW10      30.00F
DETROIT        MOSUNNY   57  41  55 S12       30.02R
FLINT          MOSUNNY   54  42  64 SW16G23   29.96S
GROSSE ILE     MOSUNNY   54  42  66 S15       30.01R
HILLSDALE      SUNNY     55  43  62 S8        29.98F
HOWELL         MOSUNNY   55  40  56 SW13      29.97R

CITY           SKY/WX    TMP DP  RH WIND       PRES   REMARKS
JACKSON        SUNNY     56  42  59 S10G17    29.97R
LAMBERTVILLE   MOSUNNY   56  42  60 SW6       30.01S
LANSING        PTSUNNY   55  41  59 SW15G22   29.97R
LAPEER         FAIR      54  39  57 SW15      29.97R
MASON          PTSUNNY   55  44  65 SW9       29.97R
MONROE         CLOUDY    57  42  57 S12G17    30.02R
MT. CLEMENS    PTSUNNY   57  42  56 SW12      29.99S
PONTIAC        MOSUNNY   54  40  59 S13G22    29.97S
PORT HOPE        N/A     52  37  56 SW13G24   29.91R
PORT HURON     PTSUNNY   55  39  54 S15       29.99S
TRI CITIES     PTSUNNY   52  39  61 SW20G31   29.94R
MIDLAND        PTSUNNY   54  37  52 SW18      29.91S
TROY           SUNNY     56  37  49 S10G17    30.00S
SAGINAW HB     MOSUNNY   52  36  54 SW16G23   29.93S
$$
MIZ043>046-050>051-056>058-064>065-071>073-077>080-281600-
SOUTHWEST LOWER MICHIGAN

CITY           SKY/WX    TMP DP  RH WIND       PRES   REMARKS
BATTLE CREEK   MOSUNNY   57  44  62 SW17      29.97R
BENTON HARBOR  MOSUNNY   53  43  68 VRB3      29.95F
BIG RAPIDS     SUNNY     47  32  56 SW9G16    29.92S
COLDWATER      SUNNY     58  42  56 SW9G18    29.98S
FREMONT        FAIR      47  33  57 SW14      29.95R
HOLLAND        CLOUDY    49  38  65 SW8       29.97R
GRAND RAPIDS   CLOUDY    49  41  74 SW10      29.95S
IONIA          CLOUDY    50  39  66 SW12      29.95R
KALAMAZOO      MOSUNNY   57  42  57 SW10      29.97S
LUDINGTON      CLOUDY    41  33  72 W10       29.95R
MARSHALL       MOSUNNY   57  43  58 SW12      29.96S
MOUNT PLEASANT SUNNY     50  35  56 W16       29.92R
MUSKEGON       MOSUNNY   46  34  62 SW12      29.97R
SOUTH HAVEN    MOSUNNY   52  43  73 W5        29.95F
$$
MIZ016>042-281600-
NORTHERN LOWER MICHIGAN

CITY           SKY/WX    TMP DP  RH WIND       PRES   REMARKS
ALPENA         CLOUDY    46  34  62 W12       29.87R
BEAVER ISLAND  CLOUDY    36  29  76 W17G23    29.87R WCI  25
BELLAIRE       CLOUDY    38  32  80 W8        29.90R WCI  32
CADILLAC       CLOUDY    43  32  66 SW16      29.88R
CHARLEVOIX     CLOUDY    36  32  85 W16G25    29.91S WCI  26
FRANKFORT      CLOUDY    39  31  71 W9        29.92R WCI  33
GAYLORD        CLOUDY    40  31  70 SW15G25   29.85R WCI  32
GRAYLING       CLOUDY    41  33  71 SW8G18    29.88S
HARBOR SPRINGS CLOUDY    35  33  95 W10G17    29.87S WCI  27
HOUGHTON LAKE  CLOUDY    45  33  63 W13       29.89S
MANISTEE       CLOUDY    40  32  73 SW13      29.93R WCI  32
OSCODA         MOSUNNY   53  32  46 W14G22    29.88S
PELLSTON       CLOUDY    36  31  82 W10       29.87R WCI  28
ROGERS CITY    CLOUDY    43  36  77 W15       29.87R
TRAVERSE CITY  CLOUDY    42  31  64 W10       29.89R
$$
MIZ007>008-015-281600-
EASTERN UPPER MICHIGAN

CITY           SKY/WX    TMP DP  RH WIND       PRES   REMARKS
KINROSS        LGT RAIN  35  29  78 W13       29.84R WCI  26
MACKINAC ISLAN CLOUDY    34  34 100 W21G26    29.85R WCI  22
NEWBERRY       CLOUDY    35  26  70 SW14G23   29.81R WCI  26
S. S. MARIE    CLOUDY    39  29  67 W8G21     29.81R WCI  33
MUNISING         N/A     36  28  73 VRB7      29.80R WCI  30
$$
MIZ004>006-011>014-085-281600-
CENTRAL UPPER MICHIGAN

CITY           SKY/WX    TMP DP  RH WIND       PRES   REMARKS
MANISTIQUE     CLOUDY    37  26  66 W8G16     29.83S WCI  30
ESCANABA       CLOUDY    36  27  69 SW14G25   29.85R WCI  27
MENOMINEE      CLOUDY    37  25  61 W7        29.90R WCI  32
SAWYER-GWINN   FLURRIES  32  27  80 W16       29.79R WCI  21
$$
MIZ001>003-009>011-084-281600-
WESTERN UPPER MICHIGAN

CITY           SKY/WX    TMP DP  RH WIND       PRES   REMARKS
IRON MOUNTAIN  CLOUDY    34  25  69 W13       29.81R WCI  25
HOUGHTON       MIX PCPN  32  24  72 W17       29.73R WCI  21
COPPER HARBOR    N/A    N/A N/A N/A MISG      29.73R
IRONWOOD       CLOUDY    30  25  81 W14       29.81R WCI  19
$$

ABBREVIATIONS USED IN REMARKS
   TC - TEMPERATURE IN CELSIUS
  WCI - WIND CHILL INDEX
   HX - HEAT INDEX
  VSB - VISIBILITY





USA.gov is the U.S. government's official web portal to all federal, state and local government web resources and services.